SCP
1 1 1 1 0 0 0 0 0 0 0 0 0 0 0 0 0 0 0 0 0 0 0 0 1 0 0 0 1 1 0 0 0 0 0 0 0 0
1 1 1 1 0 0 0 0 0 0 0 0 0 0 0 0 0 0 0 0 0 0 0 0 0 0 0 0 0 0 0 0 0 0 0 0 0 0
1 1 1 1 0 0 0 0 0 0 0 0 0 0 0 0 0 0 0 0 0 0 0 0 0 0 0 0 0 0 0 0 0 0 0 0 0 0
0 1 1 1 0 0 0 0 0 0 0 0 0 0 0 0 0 0 0 0 0 0 0 0 0 0 0 0 0 0 0 0 0 0 0 0 0 0
0 1 1 1 0 0 0 0 0 0 0 0 0 0 0 0 0 0 0 0 0 0 0 0 0 0 0 0 0 0 0 0 0 0 0 0 0 0
0 0 1 1 0 0 1 1 0 0 0 0 0 0 0 0 0 0 0 0 0 0 0 0 0 0 0 0 0 0 0 0 0 0 0 0 0 0
0 0 0 0 0 0 0 1 0 0 0 0 0 0 0 0 0 0 0 0 0 0 0 0 0 0 0 0 0 0 0 0 0 0 0 0 0 0
0 0 0 0 0 0 0 0 0 0 0 0 0 0 0 0 0 0 0 0 0 0 0 0 0 0 0 0 0 0 0 0 0 0 0 0 0 0
0 0 0 0 0 0 0 0 0 0 0 0 0 0 0 0 0 0 0 0 0 0 0 0 0 0 0 0 0 0 0 0 0 0 0 0 0 0
0 0 0 0 0 0 0 0 0 0 0 0 0 0 0 0 0 0 0 0 0 0 0 0 0 0 0 0 0 0 0 0 0 0 0 0 0 0
0 0 0 0 0 0 0 0 0 0 0 0 0 0 0 0 0 0 0 0 0 0 0 0 0 0 0 0 0 0 0 0 0 0 0 0 0 0
0 0 0 0 0 0 0 0 0 0 0 0 0 0 0 0 0 0 0 0 0 0 0 0 0 0 0 0 0 0 0 0 0 0 0 0 0 0
0 0 0 0 0 0 0 0 0 0 0 0 0 0 0 0 0 0 0 0 0 0 0 0 0 0 0 0 0 0 0 0 0 0 0 0 0 0
0 0 0 0 0 0 0 0 0 0 0 0 0 0 0 0 0 0 0 0 0 0 0 0 0 0 0 0 0 0 0 0 0 0 0 0 0 0
0 0 0 0 0 0 0 0 0 0 0 0 0 0 0 0 0 0 0 0 0 0 0 0 0 0 0 0 0 0 0 0 0 0 0 0 0 0
0 0 0 0 0 0 0 0 0 0 0 0 0 0 0 0 0 0 0 0 0 0 0 0 0 0 0 0 0 0 0 0 0 0 0 0 0 0
0 0 0 0 0 0 0 0 0 0 0 0 0 0 0 0 0 0 0 0 0 0 0 0 0 0 0 0 0 0 0 0 0 0 0 0 0 0
0 0 0 0 0 0 0 0 0 0 0 0 0 0 0 0 0 0 0 0 0 0 0 0 0 0 0 0 0 0 0 0 0 0 0 0 0 0
0 0 0 0 0 0 0 0 0 0 0 0 0 0 0 0 0 0 0 0 0 0 0 0 0 0 0 0 0 0 0 0 0 0 0 0 0 0
0 0 0 0 0 0 0 0 0 0 0 0 0 0 0 0 0 0 0 0 0 0 0 0 0 0 0 0 0 0 0 0 0 0 0 0 0 0
0 0 0 0 0 0 0 0 0 0 0 0 0 0 0 0 0 0 0 0 0 0 0 0 0 0 0 0 0 0 0 0 0 0 0 0 0 0
0 0 0 0 0 0 0 0 0 0 0 0 0 0 0 0 0 0 0 0 0 0 0 0 0 0 0 0 0 0 0 0 0 0 0 0 0 0
0 0 0 0 0 0 0 0 0 0 0 0 0 0 0 0 0 0 0 0 0 0 0 0 0 0 0 0 0 0 0 0 0 0 0 0 0 0
Wind_Speed
4 4 4 4 4 4 4 5 6 6 7 6 4 5 5 5 7 8 9 14 17 17 16 14 13 12 13 13 12 11 11 10 9 9 8 8 7 6
3 4 4 3 4 4 4 5 5 6 7 5 5 4 5 5 7 7 8 13 15 16 16 14 14 14 13 13 13 12 11 11 11 10 10 9 8 7
4 4 5 4 4 3 4 4 5 5 8 5 3 3 5 6 5 6 6 8 9 15 16 15 15 15 15 14 14 14 13 13 12 11 11 9 9 8
5 5 5 5 5 4 4 5 6 5 6 8 4 3 5 7 7 7 6 6 7 13 16 16 16 16 16 16 16 15 14 14 13 12 11 10 9 9
6 6 6 5 6 4 5 5 5 5 5 6 6 3 3 4 6 5 5 5 6 9 14 16 17 17 17 17 17 16 15 15 14 13 12 10 10 9
6 6 5 5 6 6 5 6 5 6 6 6 5 4 3 4 5 5 5 5 5 5 10 11 14 17 17 18 18 16 16 16 15 14 13 11 10 9
7 6 6 7 8 7 6 6 6 6 6 6 6 5 4 3 5 4 6 4 5 5 6 7 8 9 11 15 16 17 17 17 16 16 14 13 11 10
8 7 7 7 9 11 12 11 10 8 8 7 7 7 7 5 5 5 5 4 5 5 6 7 6 8 8 8 14 17 18 18 17 16 15 14 12 11
7 7 7 8 10 7 10 12 11 13 13 10 10 9 8 7 7 7 7 6 6 5 6 7 6 8 7 9 16 18 18 18 18 17 16 14 13 11
7 7 8 8 8 9 8 8 8 8 10 8 9 9 9 8 9 9 9 7 4 4 6 6 5 5 5 6 15 18 18 18 18 17 16 15 13 11
7 7 8 8 14 16 10 9 9 9 11 13 14 13 14 14 11 6 6 6 5 4 4 4 3 2 2 4 9 16 17 18 17 17 16 15 14 12
7 7 11 13 16 17 10 9 10 9 9 10 10 11 10 10 12 9 8 7 5 4 5 5 4 3 2 2 4 7 9 14 17 17 17 16 15 8
7 7 7 17 19 19 16 10 13 13 8 8 8 7 6 6 7 7 7 7 6 5 6 6 4 4 4 3 2 4 5 5 8 10 14 17 16 11
8 7 9 18 19 19 14 14 18 14 6 6 6 6 6 5 5 6 7 7 6 7 8 8 5 6 6 4 4 4 4 5 5 6 6 12 13 13
8 14 17 19 18 12 14 17 13 6 5 6 6 6 5 5 4 4 4 3 3 3 5 6 6 6 6 5 5 6 5 5 6 6 6 6 6 6
9 12 17 16 13 13 12 9 6 5 6 6 6 5 4 4 4 3 3 3 2 1 1 3 5 6 5 4 6 6 6 7 7 6 6 4 4 4
11 7 6 6 6 6 6 5 5 5 6 5 5 5 5 4 4 3 3 3 3 3 2 1 2 3 3 4 5 6 6 5 6 7 6 5 4 5
12 7 7 7 7 7 7 7 5 5 6 5 5 5 5 5 4 3 3 3 4 3 3 4 5 4 3 2 1 6 6 5 6 6 6 6 5 4
7 6 7 7 7 7 7 7 7 6 6 6 5 5 4 4 4 4 3 3 3 3 4 5 5 5 6 4 1 1 5 6 7 6 5 4 5 5
6 7 7 7 7 7 7 7 7 6 6 6 6 5 4 4 4 4 3 3 3 3 3 4 5 5 5 5 4 2 5 7 7 7 5 4 4 5
7 7 7 7 7 7 7 7 7 7 7 6 6 5 4 4 4 4 4 4 3 3 4 4 3 5 4 5 5 4 3 5 6 6 7 6 4 4
8 8 7 7 7 7 7 7 7 6 7 6 5 4 4 4 4 4 4 3 3 3 3 3 4 4 3 4 6 6 6 6 7 10 7 5 6 7
8 8 8 7 7 7 7 7 8 7 6 6 5 4 4 4 4 4 3 3 2 3 3 4 3 3 3 5 6 6 8 8 6 6 4 5 7 8
Wind_Direction
264 263 261 252 243 237 233 224 228 241 240 225 223 219 217 214 210 211 210 210 210 214 220 219 210 204 204 209 214 214 210 210 213 210 211 218 231 247
273 272 269 267 261 251 248 245 237 239 248 227 228 227 218 223 214 215 221 214 212 214 215 211 204 201 203 206 208 205 202 202 206 210 215 220 229 242
291 280 274 274 269 267 260 252 249 247 255 254 230 230 220 222 219 219 222 218 215 214 213 209 205 202 203 203 204 202 201 202 205 209 215 220 228 238
302 294 287 285 273 268 265 260 254 249 254 262 254 236 233 223 218 219 221 219 219 214 211 210 208 206 205 203 203 202 201 201 202 206 212 217 226 234
312 302 293 289 283 278 273 269 270 267 256 261 262 248 246 226 222 225 222 221 219 215 211 211 210 209 208 205 204 202 200 199 200 203 208 214 222 232
313 304 300 294 286 284 279 272 275 273 265 259 262 257 247 233 219 219 229 221 219 213 218 216 214 210 209 209 206 202 199 199 200 202 203 208 214 223
318 316 308 304 301 296 287 278 275 273 272 263 260 258 248 229 226 221 231 228 228 211 214 213 209 208 207 211 207 202 200 199 200 202 203 205 207 213
320 320 316 311 308 305 301 295 284 273 271 267 259 252 248 243 235 231 228 225 234 205 207 219 206 211 207 206 205 202 201 200 200 201 200 201 203 208
323 321 318 319 319 309 303 298 290 285 278 272 267 259 251 242 235 233 232 233 237 206 202 223 209 217 207 208 204 202 203 201 200 200 198 198 199 201
315 314 314 315 318 318 310 302 291 286 282 273 265 264 259 247 232 232 233 242 260 217 196 219 205 215 204 200 201 201 203 201 198 197 194 192 192 194
312 314 315 313 317 319 313 304 298 294 294 288 282 278 277 270 258 245 230 230 249 229 199 199 191 195 197 201 199 198 201 198 196 194 191 189 188 188
312 310 314 315 315 316 309 299 294 293 295 295 288 281 269 260 256 237 226 228 239 232 195 183 174 158 187 207 190 187 194 197 196 192 189 188 184 175
310 310 309 314 313 312 308 296 292 296 290 286 282 276 268 253 243 237 229 224 226 237 191 176 177 173 172 172 184 187 183 180 185 189 190 187 185 176
305 303 303 309 310 309 307 303 303 301 287 283 281 276 267 257 250 245 242 239 234 229 201 184 183 182 173 171 181 177 179 175 170 169 172 184 186 185
305 307 309 311 312 308 305 309 309 299 292 286 283 279 272 263 260 257 260 249 247 232 201 199 186 180 180 177 166 166 167 177 171 165 168 172 172 172
309 308 311 312 311 310 311 312 308 297 296 286 286 286 285 275 263 255 255 242 235 250 197 187 181 172 175 166 164 170 168 170 171 165 158 160 162 165
315 308 306 309 310 309 309 308 310 311 305 297 295 296 292 285 281 268 249 235 227 204 183 139 114 109 122 154 166 171 164 161 164 158 155 160 167 171
320 313 313 313 313 314 314 312 310 308 304 299 295 295 296 293 288 280 257 239 227 202 182 166 145 124 92 33 67 165 163 158 154 156 154 156 167 170
321 313 311 312 313 312 310 309 308 306 305 300 293 290 290 290 287 279 265 249 228 200 184 176 173 169 173 177 172 156 160 153 153 156 159 151 161 166
317 313 311 310 309 308 306 305 303 303 302 299 295 288 283 284 284 278 266 248 224 197 186 185 191 187 184 167 152 144 152 154 156 156 143 114 106 132
315 312 308 307 306 304 303 300 298 297 296 295 291 288 284 280 278 276 266 243 225 203 196 196 186 146 113 111 116 118 114 125 139 146 142 134 134 147
311 309 308 306 305 302 301 300 299 297 296 291 288 284 281 277 276 273 264 246 224 207 188 158 144 143 142 148 141 135 127 114 106 110 108 132 157 172
312 310 307 305 303 302 300 299 298 297 296 294 290 284 278 278 276 269 257 239 208 183 161 152 150 138 134 138 135 134 134 132 125 113 84 88 109 117